Location: Wyoming Infrared Observatory
(41.0971°N, 105.9765°W)
Time: 15:18:56
(UTC-07:00)

Amateur Radio Satellites - All Passes

Search period start: 25 January 2015 14:48
Search period end: 26 January 2015 14:48
Location: Wyoming Infrared Observatory, 41.0971°N, 105.9765°W

Satellite Date Start Highest point End Downlink Frequencies (MHz)
Time Altitude Azimuth
CUSAT 1 25 Jan 15:10:18 15:16:54 47° 71° (ENE) 15:21:56 437.405
VERMONT LUNAR 25 Jan 15:14:16 15:17:21 28° 205° (SSW) 15:20:25 437.305
AO-7 25 Jan 15:31:38 15:40:02 77° 255° (WSW) 15:48:26 29.400- 29.500
M-CUBED/EXP-1 PRIME 25 Jan 15:33:46 15:37:06 76° 107° (ESE) 15:40:27 437.505
KKS-1 25 Jan 15:34:27 15:38:30 33° 290° (WNW) 15:42:31 437.445
STARS 25 Jan 15:37:21 15:41:39 45° 288° (WNW) 15:45:52 437.465
PCSat 25 Jan 15:39:42 15:44:00 23° 252° (WSW) 15:48:08 145.827
JAS-2 25 Jan 15:40:59 15:46:31 56° 73° (ENE) 15:51:41 435.910
PHONESAT 2.4 25 Jan 15:48:21 15:51:35 28° 205° (SSW) 15:54:46 2401.200-2431.200
RS-15 25 Jan 15:50:23 16:01:11 49° 248° (WSW) 16:12:17 29.354- 29.394
DANDE 25 Jan 16:01:42 16:09:03 80° 263° (W) 16:14:30 436.750
CUTE-I 25 Jan 16:05:09 16:07:53 15° 61° (ENE) 16:10:52 437.470
AUBIESAT-1 25 Jan 16:10:45 16:13:50 36° 292° (WNW) 16:16:55 437.475
MOZHAYETS 4 25 Jan 16:43:04 16:47:33 53° 100° (E) 16:52:01
O/OREOS (USA 219) 25 Jan 16:46:05 16:50:28 58° 109° (ESE) 16:54:56 437.305
CUSAT 1 25 Jan 16:54:09 16:59:23 24° 277° (W) 17:03:31 437.405
Cubesat XI-IV 25 Jan 17:20:52 17:26:09 70° 74° (ENE) 17:31:29 437.490
JAS-2 25 Jan 17:28:15 17:32:04 18° 269° (W) 17:35:29 435.910
AO-7 25 Jan 17:30:05 17:34:23 14° 275° (W) 17:38:02 29.400- 29.500
CUTE-I 25 Jan 17:42:04 17:47:23 78° 257° (WSW) 17:52:45 437.470
DANDE 25 Jan 17:48:43 17:50:53 11° 284° (WNW) 17:52:28 436.750
SO-50 25 Jan 18:04:35 18:05:45 11° 31° (NNE) 18:07:06 436.795
HO-68 25 Jan 18:04:48 18:08:07 14° 53° (NE) 18:11:49 435.675
MOZHAYETS 4 25 Jan 18:21:35 18:24:25 16° 295° (WNW) 18:27:04
CUBESAT XI-V 25 Jan 18:23:52 18:28:22 46° 98° (E) 18:32:54 437.345
O/OREOS (USA 219) 25 Jan 18:27:35 18:30:22 16° 308° (NW) 18:33:02 437.305
STRAND 1 25 Jan 18:30:13 18:34:58 37° 97° (E) 18:39:45 437.568
PRISM 25 Jan 18:32:46 18:36:56 85° 107° (ESE) 18:41:05 437.425
CANX-2 25 Jan 18:42:05 18:42:31 10° 63° (ENE) 18:43:11 2200.000
DOVE 4 25 Jan 18:49:23 18:49:57 10° 59° (ENE) 18:50:50 437.250
Cubesat XI-IV 25 Jan 19:03:55 19:06:53 14° 272° (W) 19:09:36 437.490
CUTE 1.7 + AOD 2 25 Jan 19:04:26 19:07:07 17° 67° (ENE) 19:09:56 437.475
AAUSAT CUBESAT 2 25 Jan 19:08:33 19:09:45 11° 64° (ENE) 19:11:09 437.432
YUBILEINY 25 Jan 19:25:26 19:33:36 49° 90° (E) 19:41:53 435.215
BRITE-PL 25 Jan 19:35:24 19:40:08 53° 72° (ENE) 19:45:19 437.365/2234.400
SEEDS 25 Jan 19:39:26 19:43:15 33° 71° (ENE) 19:47:07 437.485
SO-50 25 Jan 19:42:41 19:47:31 52° 53° (NE) 19:52:20 436.795
HO-68 25 Jan 19:47:40 19:54:46 72° 71° (ENE) 20:01:55 435.675
GOMX 1 25 Jan 19:51:08 19:55:56 53° 73° (ENE) 20:01:06 467.674
UWE-3 25 Jan 19:55:30 19:57:26 13° 63° (ENE) 19:59:37 435.000/436.395/437.385
CUBESAT XI-V 25 Jan 20:02:13 20:05:32 19° 294° (WNW) 20:08:43 437.345
STRAND 1 25 Jan 20:09:44 20:14:02 27° 293° (WNW) 20:18:15 437.568
COMPASS 1 25 Jan 20:11:20 20:15:31 63° 76° (ENE) 20:19:44 437.405
CANX-2 25 Jan 20:13:36 20:17:55 78° 258° (WSW) 20:22:14 2200.000
DOVE 4 25 Jan 20:21:56 20:26:51 78° 76° (ENE) 20:32:05 437.250
Oscar 11 25 Jan 20:25:58 20:30:00 39° 72° (ENE) 20:34:06 145.826/435.025
CINEMA 3 25 Jan 20:38:20 20:43:09 67° 75° (ENE) 20:48:09 145.822/145.860
CUTE 1.7 + AOD 2 25 Jan 20:38:37 20:42:45 44° 262° (W) 20:46:53 437.475
CUBEBUG 2 25 Jan 20:40:37 20:45:02 42° 72° (ENE) 20:49:34 437.445
AAUSAT CUBESAT 2 25 Jan 20:40:43 20:44:56 68° 259° (W) 20:49:08 437.432
DELFI C3 25 Jan 20:58:24 21:02:28 74° 76° (ENE) 21:06:34 145.870
UKube-1 25 Jan 20:58:54 21:03:08 55° 73° (ENE) 21:07:23 .
ZACube-1 25 Jan 21:05:29 21:09:56 53° 73° (ENE) 21:14:28 437.345
ESTCUBE 1 25 Jan 21:13:26 21:15:37 14° 64° (ENE) 21:18:00 437.505/2401.250
DX 1 25 Jan 21:14:52 21:19:13 87° 76° (ENE) 21:23:36 434.975-435.025
BRITE-PL 25 Jan 21:15:41 21:19:09 18° 272° (W) 21:22:35 437.365/2234.400
SEEDS 25 Jan 21:15:53 21:19:12 21° 267° (W) 21:22:23 437.485
FUNcube-1 25 Jan 21:18:41 21:23:14 73° 76° (ENE) 21:27:51 145.935
AISAT 25 Jan 21:21:00 21:25:04 37° 71° (ENE) 21:29:12 437.250
YUBILEINY 25 Jan 21:22:48 21:30:43 36° 290° (WNW) 21:38:31 435.215
SO-50 25 Jan 21:24:06 21:27:45 20° 249° (WSW) 21:31:16 436.795
UWE-3 25 Jan 21:28:47 21:33:25 74° 258° (WSW) 21:38:10 435.000/436.395/437.385
GOMX 1 25 Jan 21:31:04 21:34:32 18° 272° (W) 21:37:57 467.674
HO-68 25 Jan 21:37:56 21:43:14 21° 270° (W) 21:48:14 435.675
HUMSAT D 25 Jan 21:39:10 21:43:29 68° 75° (ENE) 21:47:50 437.325/437.525
AIST 1 25 Jan 21:41:41 21:43:47 14° 68° (ENE) 21:46:07
COMPASS 1 25 Jan 21:50:35 21:51:46 11° 272° (W) 21:52:40 437.405
DUCHIFAT 1 25 Jan 21:50:43 21:51:13 10° 87° (E) 21:52:00 145.980
VELOX 1 25 Jan 21:50:59 21:55:24 76° 75° (ENE) 21:59:51 145.980
50 SAT 25 Jan 21:51:17 21:55:24 70° 76° (ENE) 21:59:32 437.505
ISS 25 Jan 21:56:06 21:57:13 12° 130° (SE) 21:58:28 145.825
Oscar 11 25 Jan 22:03:19 22:06:24 18° 268° (W) 22:09:22 145.826/435.025
DOVE 4 25 Jan 22:03:21 22:05:25 12° 275° (W) 22:07:12 437.250
CUBEBUG 1 25 Jan 22:11:29 22:15:39 49° 73° (ENE) 22:19:54 437.445
SPROUT 25 Jan 22:14:46 22:16:46 13° 64° (ENE) 22:18:59 437.525
UNISAT 6 25 Jan 22:15:59 22:20:08 36° 97° (E) 22:24:12 437.425
CINEMA 3 25 Jan 22:18:21 22:20:57 14° 273° (W) 22:23:20 145.822/145.860
CUBEBUG 2 25 Jan 22:18:22 22:21:57 21° 269° (W) 22:25:27 437.445
NANOSAT C BR1 25 Jan 22:21:50 22:25:20 24° 94° (E) 22:28:55 145.865
QB50P2 25 Jan 22:33:35 22:37:31 33° 97° (E) 22:41:26 145.880/145.840
UKube-1 25 Jan 22:37:37 22:39:44 13° 270° (W) 22:41:37 .
ZACube-1 25 Jan 22:43:55 22:46:42 15° 271° (W) 22:49:19 437.345
QB50P1 25 Jan 22:44:11 22:48:18 43° 98° (E) 22:52:25 145.935-145.965
ESTCUBE 1 25 Jan 22:47:38 22:52:04 61° 259° (W) 22:56:31 437.505/2401.250
ANTELSAT 25 Jan 22:51:25 22:55:58 89° 115° (ESE) 23:00:21 437.575/2403.000
POLYITAN 1 25 Jan 22:56:12 23:00:30 61° 100° (E) 23:04:46 437.675
AISAT 25 Jan 22:58:29 23:01:51 20° 267° (W) 23:05:08 437.250
FUNcube-1 25 Jan 22:58:48 23:00:13 11° 273° (W) 23:01:20 145.935
TIGRISAT 25 Jan 23:01:32 23:06:03 73° 285° (WNW) 23:10:25 435.000
TISAT 1 25 Jan 23:02:59 23:06:58 42° 72° (ENE) 23:11:02 437.305
BUGSAT 1 25 Jan 23:16:05 23:20:23 78° 102° (ESE) 23:24:40 437.445
AIST 1 25 Jan 23:17:39 23:21:52 51° 266° (W) 23:26:06
POPSAT HIP 1 25 Jan 23:18:21 23:22:41 77° 284° (WNW) 23:26:59 437.405
HUMSAT D 25 Jan 23:18:44 23:19:50 11° 273° (W) 23:20:40 437.325/437.525
SWISSCUBE 25 Jan 23:19:52 23:21:52 13° 62° (ENE) 23:24:06 437.505
DUCHIFAT 1 25 Jan 23:23:20 23:27:38 68° 285° (WNW) 23:31:53 145.980
ISS 25 Jan 23:30:04 23:33:20 79° 323° (NW) 23:36:39 145.825
BEESAT 25 Jan 23:35:22 23:38:19 17° 64° (ENE) 23:41:27 436.000
ITUPSAT 1 25 Jan 23:36:45 23:39:45 17° 64° (ENE) 23:42:55 437.325
GONETS M04 25 Jan 23:39:01 23:40:09 10° 75° (ENE) 23:42:05
SPROUT 25 Jan 23:48:12 23:52:27 58° 260° (W) 23:56:44 437.525
CUBEBUG 1 25 Jan 23:49:55 23:52:25 14° 270° (W) 23:54:44 437.445
UNISAT 6 25 Jan 23:53:17 23:56:44 21° 293° (WNW) 00:00:02 437.425
NANOSAT C BR1 25 Jan 23:57:29 00:01:14 29° 290° (WNW) 00:04:54 145.865
QB50P2 26 Jan 00:09:55 00:13:16 22° 292° (WNW) 00:16:30 145.880/145.840
QB50P1 26 Jan 00:21:01 00:23:54 17° 294° (WNW) 00:26:40 145.935-145.965
POLYITAN 1 26 Jan 00:33:54 00:36:00 13° 296° (WNW) 00:37:54 437.675
Oscar 19 26 Jan 00:37:32 00:41:13 20° 91° (E) 00:45:03 437.125/150
TISAT 1 26 Jan 00:40:22 00:43:05 16° 269° (W) 00:45:39 437.305
SWISSCUBE 26 Jan 00:54:27 00:59:12 74° 258° (WSW) 01:03:59 437.505
BUGSAT 1 26 Jan 00:54:37 00:55:21 10° 297° (WNW) 00:55:50 437.445
KKS-1 26 Jan 00:56:48 01:00:10 22° 67° (ENE) 01:03:40 437.445
STARS 26 Jan 00:59:47 01:02:22 16° 65° (ENE) 01:05:08 437.465
ISS 26 Jan 01:07:52 01:10:18 19° 344° (NNW) 01:12:43 145.825
BEESAT 26 Jan 01:11:09 01:15:49 54° 260° (W) 01:20:30 436.000
ITUPSAT 1 26 Jan 01:12:39 01:17:18 53° 260° (W) 01:21:59 437.325
O/OREOS (USA 219) 26 Jan 01:18:24 01:20:34 13° 50° (NE) 01:22:55 437.305
Gurwin Techsat 1B 26 Jan 01:21:33 01:23:31 12° 87° (E) 01:25:49 435.225
AUBIESAT-1 26 Jan 01:25:21 01:28:23 21° 65° (ENE) 01:31:20 437.475
GONETS M04 26 Jan 01:26:52 01:35:28 65° 93° (E) 01:44:06
BEESAT 3 26 Jan 02:04:25 02:06:47 15° 111° (ESE) 02:09:20 437.485
Oscar 19 26 Jan 02:15:55 02:20:53 48° 289° (WNW) 02:25:48 437.125/150
M-CUBED/EXP-1 PRIME 26 Jan 02:22:35 02:26:48 76° 251° (WSW) 02:30:41 437.505
ITAMSAT 1 26 Jan 02:23:26 02:28:41 72° 102° (ESE) 02:33:54 435.822/435.867
KKS-1 26 Jan 02:32:30 02:36:39 36° 263° (W) 02:40:48 437.445
STARS 26 Jan 02:34:09 02:38:29 52° 260° (W) 02:42:52 437.465
HORYU 2 26 Jan 02:36:19 02:39:25 19° 92° (E) 02:42:38 437.375
CUSAT 1 26 Jan 02:39:10 02:41:29 12° 77° (ENE) 02:44:31 437.405
ISS 26 Jan 02:46:02 02:47:47 13° 4° (N) 02:49:32 145.825
O/OREOS (USA 219) 26 Jan 02:56:01 03:00:37 74° 250° (WSW) 03:05:12 437.305
Gurwin Techsat 1B 26 Jan 02:58:54 03:04:15 80° 286° (WNW) 03:09:34 435.225
AUBIESAT-1 26 Jan 02:59:29 03:03:13 31° 257° (WSW) 03:06:40 437.475
AIST 2 26 Jan 03:00:10 03:03:28 23° 113° (ESE) 03:06:55 435.215
BEESAT 2 26 Jan 03:22:30 03:26:37 86° 298° (WNW) 03:30:50 435.950
GONETS M04 26 Jan 03:25:42 03:33:04 28° 294° (WNW) 03:40:11
DANDE 26 Jan 03:29:02 03:35:12 26° 84° (E) 03:42:06 436.750
AO-7 26 Jan 03:33:45 03:41:16 37° 97° (E) 03:48:51 29.400- 29.500
BEESAT 3 26 Jan 03:40:35 03:44:35 49° 307° (NW) 03:48:39 437.485
MOZHAYETS 4 26 Jan 03:44:55 03:49:21 49° 73° (ENE) 03:53:48
RS-15 26 Jan 04:03:34 04:12:09 29° 106° (ESE) 04:21:09 29.354- 29.394
ITAMSAT 1 26 Jan 04:04:33 04:07:40 16° 298° (WNW) 04:10:34 435.822/435.867
HORYU 2 26 Jan 04:12:07 04:16:18 39° 289° (WNW) 04:20:25 437.375
CUSAT 1 26 Jan 04:15:21 04:23:06 62° 94° (E) 04:31:29 437.405
ISS 26 Jan 04:22:16 04:25:08 26° 23° (NNE) 04:28:01 145.825
JAS-2 26 Jan 04:33:27 04:38:50 50° 100° (E) 04:44:52 435.910
PCSat 26 Jan 04:37:11 04:42:17 45° 113° (ESE) 04:47:28 145.827
AIST 2 26 Jan 04:37:58 04:41:55 36° 309° (NW) 04:45:56 435.215
Gurwin Techsat 1B 26 Jan 04:41:55 04:43:28 11° 301° (WNW) 04:44:43 435.225
BEESAT 2 26 Jan 05:03:46 05:05:34 12° 322° (NW) 05:07:15 435.950
DANDE 26 Jan 05:10:02 05:17:58 73° 282° (WNW) 05:26:43 436.750
PRISM 26 Jan 05:23:11 05:27:15 61° 74° (ENE) 05:31:19 437.425
MOZHAYETS 4 26 Jan 05:24:01 05:26:56 16° 270° (W) 05:29:40
AO-7 26 Jan 05:26:19 05:34:18 50° 296° (WNW) 05:42:10 29.400- 29.500
CUBESAT XI-V 26 Jan 05:27:19 05:31:40 44° 72° (ENE) 05:36:04 437.345
YUBILEINY 26 Jan 05:35:58 05:42:36 24° 64° (ENE) 05:49:34 435.215
Cubesat XI-IV 26 Jan 05:38:44 05:43:17 28° 94° (E) 05:47:54 437.490
STRAND 1 26 Jan 05:45:59 05:50:54 54° 72° (ENE) 05:55:55 437.568
ISS 26 Jan 05:58:35 06:01:47 47° 221° (SW) 06:04:58 145.825
CUTE-I 26 Jan 05:59:26 06:04:31 43° 98° (E) 06:09:37 437.470
CUSAT 1 26 Jan 05:59:32 06:06:44 33° 294° (WNW) 06:14:04 437.405
RS-15 26 Jan 06:12:41 06:23:37 75° 306° (NW) 06:34:41 29.354- 29.394
JAS-2 26 Jan 06:19:26 06:23:47 23° 294° (WNW) 06:28:19 435.910
PCSat 26 Jan 06:21:15 06:25:55 28° 312° (NW) 06:30:33 145.827
DANDE 26 Jan 06:57:50 07:03:14 17° 304° (NW) 07:08:20 436.750
PRISM 26 Jan 07:02:20 07:03:16 10° 271° (W) 07:03:56 437.425
CUBESAT XI-V 26 Jan 07:06:12 07:09:24 18° 269° (W) 07:12:28 437.345
Cubesat XI-IV 26 Jan 07:18:32 07:23:29 38° 291° (WNW) 07:28:22 437.490
HO-68 26 Jan 07:18:55 07:20:59 12° 85° (E) 07:23:38 435.675
AO-7 26 Jan 07:22:39 07:25:18 11° 316° (NW) 07:27:29 29.400- 29.500
STRAND 1 26 Jan 07:27:03 07:30:32 18° 269° (W) 07:33:50 437.568
YUBILEINY 26 Jan 07:31:42 07:40:29 75° 265° (W) 07:49:13 435.215
CUTE-I 26 Jan 07:40:00 07:44:24 26° 294° (WNW) 07:48:41 437.470
BRITE-PL 26 Jan 07:41:06 07:45:14 21° 89° (E) 07:49:26 437.365/2234.400
GOMX 1 26 Jan 07:54:22 07:58:02 19° 88° (E) 08:01:48 467.674
CANX-2 26 Jan 08:00:20 08:03:10 18° 91° (E) 08:06:08 2200.000
DOVE 4 26 Jan 08:22:18 08:26:28 24° 91° (E) 08:30:36 437.250
CUTE 1.7 + AOD 2 26 Jan 08:24:21 08:28:04 30° 95° (E) 08:31:49 437.475
AAUSAT CUBESAT 2 26 Jan 08:25:13 08:28:07 19° 92° (E) 08:31:08 437.432
TIGRISAT 26 Jan 08:26:54 08:28:14 11° 62° (ENE) 08:29:49 435.000
RS-15 26 Jan 08:29:18 08:38:20 28° 335° (NNW) 08:47:22 29.354- 29.394
CINEMA 3 26 Jan 08:35:10 08:38:14 17° 89° (E) 08:41:26 145.822/145.860
DELFI C3 26 Jan 08:42:01 08:42:16 10° 88° (E) 08:42:48 145.870
ZACube-1 26 Jan 08:58:07 08:58:19 10° 86° (E) 08:58:48 437.345
SEEDS 26 Jan 08:59:27 09:03:39 65° 101° (E) 09:07:48 437.485
HO-68 26 Jan 09:02:54 09:10:04 75° 104° (ESE) 09:17:14 435.675
DX 1 26 Jan 09:04:50 09:07:19 15° 91° (E) 09:09:59 434.975-435.025
FUNcube-1 26 Jan 09:09:23 09:11:39 14° 89° (E) 09:14:06 145.935
UNISAT 6 26 Jan 09:14:46 09:18:59 34° 70° (ENE) 09:23:16 437.425
NANOSAT C BR1 26 Jan 09:15:12 09:18:12 19° 67° (ENE) 09:21:20 145.865
BRITE-PL 26 Jan 09:18:32 09:24:08 56° 287° (WNW) 09:29:32 437.365/2234.400
UWE-3 26 Jan 09:20:02 09:23:36 23° 92° (E) 09:27:11 435.000/436.395/437.385
HUMSAT D 26 Jan 09:26:28 09:27:35 11° 88° (E) 09:28:57 437.325/437.525
QB50P2 26 Jan 09:26:57 09:30:29 26° 69° (ENE) 09:34:06 145.880/145.840
COMPASS 1 26 Jan 09:30:57 09:35:06 65° 285° (WNW) 09:39:12 437.405
GOMX 1 26 Jan 09:31:13 09:36:37 57° 287° (WNW) 09:41:47 467.674
YUBILEINY 26 Jan 09:31:56 09:35:58 13° 283° (WNW) 09:39:19 435.215
CANX-2 26 Jan 09:35:23 09:39:20 37° 288° (WNW) 09:43:12 2200.000
QB50P1 26 Jan 09:37:11 09:41:00 33° 70° (ENE) 09:44:52 145.935-145.965
VERMONT LUNAR 26 Jan 09:38:26 09:41:20 25° 154° (SSE) 09:44:16 437.305
VELOX 1 26 Jan 09:43:20 09:45:48 15° 90° (E) 09:48:29 145.980
Oscar 11 26 Jan 09:49:12 09:53:33 82° 102° (ESE) 09:57:51 145.826/435.025
POLYITAN 1 26 Jan 09:49:20 09:53:26 45° 73° (ENE) 09:57:35 437.675
ANTELSAT 26 Jan 09:49:54 09:54:38 79° 76° (ENE) 09:59:23 437.575/2403.000
SO-50 26 Jan 09:59:10 10:01:50 16° 110° (ESE) 10:04:45 436.795
DOVE 4 26 Jan 09:59:28 10:04:26 41° 289° (WNW) 10:09:09 437.250
TIGRISAT 26 Jan 09:59:40 10:04:24 84° 258° (WSW) 10:09:09 435.000
AAUSAT CUBESAT 2 26 Jan 10:00:08 10:03:57 34° 289° (WNW) 10:07:41 437.432
CUTE 1.7 + AOD 2 26 Jan 10:00:32 10:03:54 23° 291° (WNW) 10:07:10 437.475
BUGSAT 1 26 Jan 10:06:17 10:10:15 52° 74° (ENE) 10:14:18 437.445
CUBEBUG 2 26 Jan 10:08:38 10:13:18 88° 284° (WNW) 10:17:47 437.445
POPSAT HIP 1 26 Jan 10:11:00 10:15:16 79° 76° (ENE) 10:19:36 437.405
CINEMA 3 26 Jan 10:11:04 10:15:52 51° 287° (WNW) 10:20:25 145.822/145.860
DELFI C3 26 Jan 10:14:01 10:18:01 60° 285° (WNW) 10:21:59 145.870
DUCHIFAT 1 26 Jan 10:15:40 10:19:56 88° 77° (ENE) 10:24:14 145.980
PHONESAT 2.4 26 Jan 10:17:29 10:20:36 27° 155° (SSE) 10:23:45 2401.200-2431.200
UKube-1 26 Jan 10:22:41 10:27:05 78° 283° (WNW) 10:31:25 .
BEESAT 3 26 Jan 10:23:27 10:25:28 13° 39° (NE) 10:27:35 437.485
ZACube-1 26 Jan 10:30:52 10:35:22 72° 285° (WNW) 10:39:41 437.345
SEEDS 26 Jan 10:37:30 10:39:00 11° 296° (WNW) 10:40:18 437.485
DX 1 26 Jan 10:39:39 10:43:54 48° 287° (WNW) 10:48:08 434.975-435.025
ESTCUBE 1 26 Jan 10:40:54 10:44:46 28° 95° (E) 10:48:40 437.505/2401.250
FUNcube-1 26 Jan 10:44:05 10:48:27 52° 287° (WNW) 10:52:40 145.935
RS-15 26 Jan 10:47:57 10:55:49 21° 9° (N) 11:04:00 29.354- 29.394
AISAT 26 Jan 10:48:12 10:52:45 78° 102° (ESE) 10:57:15 437.250
NANOSAT C BR1 26 Jan 10:49:53 10:53:52 37° 263° (W) 10:57:51 145.865
HO-68 26 Jan 10:51:50 10:57:11 23° 302° (WNW) 11:02:18 435.675
UNISAT 6 26 Jan 10:51:57 10:55:51 25° 266° (W) 10:59:41 437.425
UWE-3 26 Jan 10:56:09 11:00:15 33° 290° (WNW) 11:04:12 435.000/436.395/437.385
HUMSAT D 26 Jan 10:59:41 11:03:54 61° 285° (WNW) 11:08:02 437.325/437.525
QB50P2 26 Jan 11:02:41 11:06:22 27° 265° (W) 11:10:01 145.880/145.840
50 SAT 26 Jan 11:06:05 11:10:09 67° 285° (WNW) 11:14:08 437.505
QB50P1 26 Jan 11:13:41 11:16:59 21° 267° (W) 11:20:14 145.935-145.965
VERMONT LUNAR 26 Jan 11:15:42 11:19:11 69° 171° (S) 11:22:42 437.305
VELOX 1 26 Jan 11:18:23 11:22:46 51° 287° (WNW) 11:27:07 145.980
AIST 2 26 Jan 11:21:55 11:24:57 19° 43° (NE) 11:28:01 435.215
POLYITAN 1 26 Jan 11:27:01 11:29:41 15° 270° (W) 11:32:12 437.675
ANTELSAT 26 Jan 11:31:04 11:32:06 10° 273° (W) 11:32:48 437.575/2403.000
SPROUT 26 Jan 11:35:38 11:39:10 24° 94° (E) 11:42:44 437.525
CUBEBUG 1 26 Jan 11:36:38 11:41:06 78° 284° (WNW) 11:45:33 437.445
SO-50 26 Jan 11:37:25 11:41:56 58° 306° (NW) 11:46:37 436.795
GONETS M04 26 Jan 11:37:38 11:45:03 31° 68° (ENE) 11:52:38
BEESAT 2 26 Jan 11:42:34 11:46:42 56° 54° (NE) 11:50:46 435.950
BUGSAT 1 26 Jan 11:44:23 11:46:11 12° 271° (W) 11:47:46 437.445
AIST 1 26 Jan 11:46:52 11:51:07 87° 276° (W) 11:55:25
Oscar 19 26 Jan 11:54:05 11:58:32 30° 68° (ENE) 12:03:04 437.125/150
PHONESAT 2.4 26 Jan 11:55:18 11:58:55 72° 171° (S) 12:02:34 2401.200-2431.200
BEESAT 3 26 Jan 12:00:03 12:04:14 83° 240° (WSW) 12:08:21 437.485
ITAMSAT 1 26 Jan 12:05:08 12:07:40 14° 61° (ENE) 12:10:26 435.822/435.867
ESTCUBE 1 26 Jan 12:17:44 12:21:37 28° 291° (WNW) 12:25:27 437.505/2401.250
TISAT 1 26 Jan 12:23:26 12:27:45 82° 102° (ESE) 12:32:03 437.305
AISAT 26 Jan 12:27:16 12:28:49 11° 298° (WNW) 12:30:07 437.250
Gurwin Techsat 1B 26 Jan 12:41:51 12:45:40 21° 65° (ENE) 12:49:40 435.225
AO-7 26 Jan 12:46:54 12:49:16 12° 44° (NE) 12:52:08 29.400- 29.500
VERMONT LUNAR 26 Jan 12:53:46 12:57:17 78° 187° (S) 13:00:50 437.305
SWISSCUBE 26 Jan 12:55:24 12:59:29 28° 95° (E) 13:03:40 437.505
AIST 2 26 Jan 12:59:44 13:03:56 54° 242° (WSW) 13:08:02 435.215
RS-15 26 Jan 13:01:41 13:12:16 44° 41° (NE) 13:23:23 29.354- 29.394
SPROUT 26 Jan 13:11:28 13:15:17 30° 290° (WNW) 13:19:02 437.525
BEESAT 26 Jan 13:11:37 13:16:04 38° 98° (E) 13:20:31 436.000
ITUPSAT 1 26 Jan 13:13:26 13:17:55 39° 98° (E) 13:22:24 437.325
SO-50 26 Jan 13:22:08 13:23:37 11° 328° (NNW) 13:24:56 436.795
BEESAT 2 26 Jan 13:22:21 13:24:30 14° 250° (WSW) 13:26:29 435.950
PCSat 26 Jan 13:25:05 13:30:05 37° 52° (NE) 13:35:07 145.827
Oscar 19 26 Jan 13:33:06 13:37:49 34° 264° (W) 13:42:30 437.125/150
PHONESAT 2.4 26 Jan 13:33:49 13:37:28 76° 188° (S) 13:41:08 2401.200-2431.200
GONETS M04 26 Jan 13:33:59 13:42:26 57° 269° (W) 13:50:49
HORYU 2 26 Jan 13:35:06 13:38:12 19° 66° (ENE) 13:41:25 437.375
ITAMSAT 1 26 Jan 13:41:25 13:46:35 78° 257° (WSW) 13:51:49 435.822/435.867
DANDE 26 Jan 14:14:02 14:18:35 18° 56° (NE) 14:22:43 436.750
Gurwin Techsat 1B 26 Jan 14:20:10 14:25:19 51° 260° (W) 14:30:31 435.225
KKS-1 26 Jan 14:23:33 14:27:51 42° 98° (E) 14:32:07 437.445
STARS 26 Jan 14:24:33 14:28:24 28° 95° (E) 14:32:17 437.465
VERMONT LUNAR 26 Jan 14:32:00 14:35:14 33° 203° (SSW) 14:38:27 437.305
AO-7 26 Jan 14:32:22 14:40:18 51° 65° (ENE) 14:48:20 29.400- 29.500
SWISSCUBE 26 Jan 14:33:10 14:37:22 30° 291° (WNW) 14:41:30 437.505
AUBIESAT-1 26 Jan 14:42:23 14:43:43 12° 97° (E) 14:45:12 437.475
